Location: Newark
(48.1500°N, 13.1167°E)
Time: 19:48:51
(UTC+00:00)

UKube-1 - Visible Passes

Search period start: 05 December 2021 00:00
Search period end: 15 December 2021 00:00
Orbit: 612 x 617 km, 98.4° (Epoch: 05 December)

Date Brightness Start Highest point End Pass type
(mag) Time Alt. Az. Time Alt. Az. Time Alt. Az.
05 Dec ? 05:44:16 10° E 05:46:49 16° ENE 05:49:23 10° NNE visible
06 Dec ? 05:58:57 10° ESE 06:02:09 21° ENE 06:05:21 10° NNE visible
10 Dec ? 05:27:43 10° ENE 05:28:34 11° NE 05:29:27 10° NE visible
11 Dec ? 05:41:34 10° E 05:43:51 14° ENE 05:46:08 10° NNE visible
12 Dec ? 05:56:08 10° ESE 05:59:09 19° ENE 06:02:11 10° NNE visible
13 Dec ? 06:10:58 10° ESE 06:14:29 25° ENE 06:18:01 10° N visible
